OBJECT G, 44316

Orbit data source: Space-Track

You're viewing an Uncataloged Satellite

Recently launched and/or uncataloged satellites may have evolving metadata. Metadata may include but not limited to: Owner, Maufacturer, Bus, Motor, and Mission.

OBJECT G, 44316 is a satellite owned by CETG (CN) in LEO that was launched on Wed, 05 Jun 2019 UTC via a CHANG ZHENG 11 launch vehicle from the Yellow Sea Launch Area, China (YSLA). Unknown objects in Earth's orbit typically refer to objects detected orbiting the Earth but have not yet been identified or cataloged. These objects could be anything from previously untracked satellites, spent rocket stages, debris from satellite collisions, or even natural meteoroids temporarily captured by Earth's gravity.

Loading next visibility...
OBJECT G details
Identifier
44316, 2019-032G
Orbit
LEO
Last TLE update8 hours ago
Origin
Flag of CNCETG (CN / PRC)
ManufacturerDKJ?
MissionCommercial Technology
Bus & MotorTIANDI, Unknown motor
Mass65 kg wet, 65 kg dry
Launch date (UTC)
2019-06-05 (6 years ago)
Launch vehicle
CHANG ZHENG 11
Launch site
Yellow Sea Launch Area, China (YSLA)
Object typeUnknown
Shape & HBRBox, 1 m
Radar Cross Section1.500 m², Medium (>0.1 m² and < 1m²)

Expand to show TLE details & history

TLE from 8 hours ago
0 OBJECT G
1 44316U 19032G   24361.25013182  .00014465  00000-0  82793-3 0  9993
2 44316  44.9791  85.4358 0011030  55.5336 304.6582 15.12547706305227
Epoch: 2024-12-26T06:00Z
Definitive object data (Epoch: 2024-12-26T06:00:11.389Z)
Latitude0.00002°
Longitude-99.84386°
Altitude524.104 km
Speed7.605 km/s
True Right ascension05h 41m 44s
True Declination0° 00' 00"
Sunlit
Object was in full shadow at TLE epoch
Visualization TLE readout
Latitude38.47972°
Longitude25.99182°
Altitude527.097 km
Speed7.607 km/s
Apparent Right ascension16h 18m 54s
Apparent Declination17° 58' 18"
Sunlit
Object is in daylight
Visualization observer readout
Local Sidereal Time13:48:49
Azimuth113.127° SE
Elevation50.952°
Doppler factor1
Orbital elements
Apogee altitude537.655 km
Perigee altitude522.416 km
Semi-major axis6,908.173 km
Eccentricity0.001103
Inclination44.9791°
RAAN85.4358°
Arg. of periapsis55.5336°
True anomaly304.55415°
Mean anomaly304.6582°
Eccentric anomaly304.60618°
Mean motion3.78006 °/min
BSTAR0.00082793
Orbital period95.24 mins
Loading maneuver chart data...
Loading historical data...
Loading historical data...
Loading historical data...
Loading historical data...
Loading historical data...
Loading historical data...
Loading historical data...

OBJECT G Visibility forecast

Observer location: undefined°, undefined

Span
Click to sort rows by Start time (UTC) header in descending order
Start Az.
Max El. time (UTC)
Max El. Az.
Max El.
End time (UTC)
End Az.
4 mins2024-12-26 16:03:58.575Z248.058° W2024-12-26 16:04:58.575Z229.407° WSW18.263°2024-12-26 16:07:58.575Z176.593° S
5 mins2024-12-27 09:10:58.575Z224.411° SW2024-12-27 09:12:58.575Z143.811° SSE41.788°2024-12-27 09:15:58.575Z72.754° E
5 mins2024-12-27 10:50:58.575Z290.552° WNW2024-12-27 10:52:58.575Z356.671° N35.26°2024-12-27 10:55:58.575Z60.037° ENE
5 mins2024-12-27 12:30:58.575Z308.375° NW2024-12-27 12:32:58.575Z2.451° NNE33.873°2024-12-27 12:35:58.575Z75.204° E
6 mins2024-12-27 14:10:58.575Z288.758° WNW2024-12-27 14:12:58.575Z233.645° WSW44.135°2024-12-27 14:16:58.575Z120.562° SE
|